Time,TemperatureF,DewpointF,PressureIn,WindDirection,WindDirectionDegrees,WindSpeedMPH,WindSpeedGustMPH,Humidity,HourlyPrecipIn,Conditions,Clouds,dailyrainin,SoftwareType,DateUTC
2013-04-27 00:01:00,76.7,65.3,30.21,ENE,76,0.0,2.0,68,0.00,,,0.00,WeatherCatV1.15B25,2013-04-27 04:01:00,
2013-04-27 00:06:00,76.5,65.1,30.21,NE,54,1.0,4.0,68,0.00,,,0.00,WeatherCatV1.15B25,2013-04-27 04:06:00,
2013-04-27 00:11:00,76.3,64.9,30.21,SE,127,5.0,5.0,68,0.00,,,0.00,WeatherCatV1.15B25,2013-04-27 04:11:00,
2013-04-27 00:16:00,76.0,64.7,30.21,ENE,57,6.0,6.0,68,0.00,,,0.00,WeatherCatV1.15B25,2013-04-27 04:16:00,
2013-04-27 00:21:00,75.8,64.5,30.21,ESE,121,1.0,6.0,68,0.00,,,0.00,WeatherCatV1.15B25,2013-04-27 04:21:00,
2013-04-27 00:26:00,75.6,64.7,30.21,East,85,1.0,9.0,69,0.00,,,0.00,WeatherCatV1.15B25,2013-04-27 04:26:00,
2013-04-27 00:31:00,75.4,64.5,30.21,ENE,72,2.0,6.0,69,0.00,,,0.00,WeatherCatV1.15B25,2013-04-27 04:31:00,
2013-04-27 00:36:00,75.2,64.7,30.21,ENE,68,2.0,6.0,70,0.00,,,0.00,WeatherCatV1.15B25,2013-04-27 04:36:00,
2013-04-27 00:41:00,75.0,64.5,30.21,ENE,70,2.0,5.0,70,0.00,,,0.00,WeatherCatV1.15B25,2013-04-27 04:41:00,
2013-04-27 00:46:00,74.8,64.3,30.21,East,80,1.0,5.0,70,0.00,,,0.00,WeatherCatV1.15B25,2013-04-27 04:46:00,
2013-04-27 00:51:00,74.6,64.6,30.21,East,83,2.0,4.0,71,0.00,,,0.00,WeatherCatV1.15B25,2013-04-27 04:51:00,
2013-04-27 00:56:00,74.3,64.7,30.21,East,88,3.0,6.0,72,0.00,,,0.00,WeatherCatV1.15B25,2013-04-27 04:56:00,
2013-04-27 01:01:00,74.1,64.5,30.21,East,95,4.0,5.0,72,0.00,,,0.00,WeatherCatV1.15B25,2013-04-27 05:01:00,
2013-04-27 01:06:00,73.9,64.7,30.20,ENE,76,0.0,3.0,73,0.00,,,0.00,WeatherCatV1.15B25,2013-04-27 05:06:00,
2013-04-27 01:11:00,73.7,64.5,30.21,ESE,104,0.0,3.0,73,0.00,,,0.00,WeatherCatV1.15B25,2013-04-27 05:11:00,
2013-04-27 01:16:00,73.5,64.7,30.20,ENE,78,1.0,4.0,74,0.00,,,0.00,WeatherCatV1.15B25,2013-04-27 05:16:00,
2013-04-27 01:21:00,73.3,64.5,30.20,ESE,118,2.0,6.0,74,0.00,,,0.00,WeatherCatV1.15B25,2013-04-27 05:21:00,
2013-04-27 01:26:00,73.1,64.7,30.20,ESE,119,0.0,2.0,75,0.00,,,0.00,WeatherCatV1.15B25,2013-04-27 05:26:00,
2013-04-27 01:31:00,72.9,64.5,30.20,SE,130,4.0,6.0,75,0.00,,,0.00,WeatherCatV1.15B25,2013-04-27 05:31:00,
2013-04-27 01:36:00,72.8,64.4,30.20,ESE,107,3.0,4.0,75,0.00,,,0.00,WeatherCatV1.15B25,2013-04-27 05:36:00,
2013-04-27 01:41:00,72.7,64.7,30.19,ESE,117,4.0,5.0,76,0.00,,,0.00,WeatherCatV1.15B25,2013-04-27 05:41:00,
2013-04-27 01:46:00,72.6,64.6,30.19,ENE,74,1.0,3.0,76,0.00,,,0.00,WeatherCatV1.15B25,2013-04-27 05:46:00,
2013-04-27 01:51:00,72.4,64.4,30.19,ESE,104,1.0,2.0,76,0.00,,,0.00,WeatherCatV1.15B25,2013-04-27 05:51:00,
2013-04-27 01:56:00,72.3,64.7,30.19,ENE,70,0.0,4.0,77,0.00,,,0.00,WeatherCatV1.15B25,2013-04-27 05:56:00,
2013-04-27 02:00:00,72.1,64.5,30.18,ENE,71,0.0,4.0,77,0.00,,,0.00,WeatherCatV1.15B25,2013-04-27 06:00:00,
2013-04-27 02:02:00,72.1,64.5,30.18,ENE,71,0.0,2.0,77,0.00,,,0.00,WeatherCatV1.15B25,2013-04-27 06:02:00,
2013-04-27 02:06:00,71.9,64.7,30.18,East,83,2.0,3.0,78,0.00,,,0.00,WeatherCatV1.15B25,2013-04-27 06:06:00,
2013-04-27 02:11:00,71.7,64.5,30.18,East,94,2.0,3.0,78,0.00,,,0.00,WeatherCatV1.15B25,2013-04-27 06:11:00,
2013-04-27 02:16:00,71.6,64.7,30.18,ENE,57,0.0,6.0,79,0.00,,,0.00,WeatherCatV1.15B25,2013-04-27 06:16:00,
2013-04-27 02:21:00,71.6,64.7,30.18,East,94,1.0,2.0,79,0.00,,,0.00,WeatherCatV1.15B25,2013-04-27 06:21:00,
2013-04-27 02:26:00,71.4,64.9,30.18,ESE,116,0.0,5.0,80,0.00,,,0.00,WeatherCatV1.15B25,2013-04-27 06:26:00,
2013-04-27 02:31:00,71.3,64.8,30.17,ESE,107,3.0,3.0,80,0.00,,,0.00,WeatherCatV1.15B25,2013-04-27 06:31:00,
2013-04-27 02:36:00,71.2,64.7,30.17,East,94,2.0,2.0,80,0.00,,,0.00,WeatherCatV1.15B25,2013-04-27 06:36:00,
2013-04-27 02:41:00,71.2,65.1,30.17,ESE,121,4.0,4.0,81,0.00,,,0.00,WeatherCatV1.15B25,2013-04-27 06:41:00,
2013-04-27 02:46:00,71.0,64.9,30.17,East,81,2.0,2.0,81,0.00,,,0.00,WeatherCatV1.15B25,2013-04-27 06:46:00,
2013-04-27 02:51:00,70.9,64.8,30.17,East,81,1.0,2.0,81,0.00,,,0.00,WeatherCatV1.15B25,2013-04-27 06:51:00,
2013-04-27 02:56:00,70.8,65.0,30.17,East,81,0.0,1.0,82,0.00,,,0.00,WeatherCatV1.15B25,2013-04-27 06:56:00,
2013-04-27 03:01:00,70.6,64.8,30.17,East,81,0.0,1.0,82,0.00,,,0.00,WeatherCatV1.15B25,2013-04-27 07:01:00,
2013-04-27 03:06:00,70.5,64.7,30.17,East,100,0.0,0.0,82,0.00,,,0.00,WeatherCatV1.15B25,2013-04-27 07:06:00,
2013-04-27 03:11:00,70.3,64.9,30.17,East,101,0.0,1.0,83,0.00,,,0.00,WeatherCatV1.15B25,2013-04-27 07:11:00,
2013-04-27 03:16:00,70.2,64.8,30.17,East,80,0.0,1.0,83,0.00,,,0.00,WeatherCatV1.15B25,2013-04-27 07:16:00,
2013-04-27 03:21:00,70.1,65.0,30.17,East,80,1.0,1.0,84,0.00,,,0.00,WeatherCatV1.15B25,2013-04-27 07:21:00,
2013-04-27 03:26:00,70.0,64.9,30.17,East,101,1.0,2.0,84,0.00,,,0.00,WeatherCatV1.15B25,2013-04-27 07:26:00,
2013-04-27 03:31:00,69.9,65.2,30.16,East,93,0.0,3.0,85,0.00,,,0.00,WeatherCatV1.15B25,2013-04-27 07:31:00,
2013-04-27 03:36:00,69.9,65.2,30.16,ENE,78,0.0,4.0,85,0.00,,,0.00,WeatherCatV1.15B25,2013-04-27 07:36:00,
2013-04-27 03:41:00,69.8,65.1,30.16,East,90,0.0,2.0,85,0.00,,,0.00,WeatherCatV1.15B25,2013-04-27 07:41:00,
2013-04-27 03:46:00,69.8,65.1,30.16,East,98,2.0,2.0,85,0.00,,,0.00,WeatherCatV1.15B25,2013-04-27 07:46:00,
2013-04-27 03:51:00,69.7,65.3,30.16,East,90,0.0,1.0,86,0.00,,,0.00,WeatherCatV1.15B25,2013-04-27 07:51:00,
2013-04-27 03:56:00,69.6,65.2,30.16,East,87,0.0,0.0,86,0.00,,,0.00,WeatherCatV1.15B25,2013-04-27 07:56:00,
2013-04-27 04:01:00,69.5,65.5,30.16,East,87,1.0,2.0,87,0.00,,,0.00,WeatherCatV1.15B25,2013-04-27 08:01:00,
2013-04-27 04:06:00,69.5,65.5,30.16,East,87,0.0,0.0,87,0.00,,,0.00,WeatherCatV1.15B25,2013-04-27 08:06:00,
2013-04-27 04:11:00,69.4,65.4,30.16,East,87,0.0,0.0,87,0.00,,,0.00,WeatherCatV1.15B25,2013-04-27 08:11:00,
2013-04-27 04:16:00,69.3,65.3,30.16,East,87,0.0,0.0,87,0.00,,,0.00,WeatherCatV1.15B25,2013-04-27 08:16:00,
2013-04-27 04:21:00,69.2,65.2,30.16,East,87,0.0,2.0,87,0.00,,,0.00,WeatherCatV1.15B25,2013-04-27 08:21:00,
2013-04-27 04:26:00,69.1,65.4,30.15,East,87,0.0,1.0,88,0.00,,,0.00,WeatherCatV1.15B25,2013-04-27 08:26:00,
2013-04-27 04:31:00,69.0,65.3,30.15,East,80,0.0,2.0,88,0.00,,,0.00,WeatherCatV1.15B25,2013-04-27 08:31:00,
2013-04-27 04:36:00,68.9,65.2,30.15,East,80,0.0,2.0,88,0.00,,,0.00,WeatherCatV1.15B25,2013-04-27 08:36:00,
2013-04-27 04:41:00,68.9,65.2,30.15,ESE,102,1.0,3.0,88,0.00,,,0.00,WeatherCatV1.15B25,2013-04-27 08:41:00,
2013-04-27 04:45:00,68.9,65.2,30.15,East,92,0.0,1.0,88,0.00,,,0.00,WeatherCatV1.15B25,2013-04-27 08:45:00,
2013-04-27 04:50:00,68.8,65.1,30.15,East,85,1.0,1.0,88,0.00,,,0.00,WeatherCatV1.15B25,2013-04-27 08:50:00,
2013-04-27 04:55:00,68.7,65.3,30.15,ENE,74,0.0,2.0,89,0.00,,,0.00,WeatherCatV1.15B25,2013-04-27 08:55:00,
2013-04-27 05:00:00,68.7,65.3,30.15,East,98,0.0,1.0,89,0.00,,,0.00,WeatherCatV1.15B25,2013-04-27 09:00:00,
2013-04-27 05:05:00,68.6,65.2,30.15,East,98,0.0,0.0,89,0.00,,,0.00,WeatherCatV1.15B25,2013-04-27 09:05:00,
2013-04-27 05:10:00,68.5,65.1,30.15,East,98,0.0,0.0,89,0.00,,,0.00,WeatherCatV1.15B25,2013-04-27 09:10:00,
2013-04-27 05:15:00,68.4,65.3,30.15,East,92,2.0,2.0,90,0.00,,,0.00,WeatherCatV1.15B25,2013-04-27 09:15:00,
2013-04-27 05:20:00,68.4,65.3,30.15,East,92,0.0,0.0,90,0.00,,,0.00,WeatherCatV1.15B25,2013-04-27 09:20:00,
2013-04-27 05:25:00,68.3,65.2,30.15,East,92,1.0,1.0,90,0.00,,,0.00,WeatherCatV1.15B25,2013-04-27 09:25:00,
2013-04-27 05:30:00,68.2,65.1,30.15,East,90,0.0,4.0,90,0.00,,,0.00,WeatherCatV1.15B25,2013-04-27 09:30:00,
2013-04-27 05:35:00,68.2,65.1,30.15,East,90,2.0,2.0,90,0.00,,,0.00,WeatherCatV1.15B25,2013-04-27 09:35:00,
2013-04-27 05:40:00,68.2,65.5,30.15,East,85,0.0,4.0,91,0.00,,,0.00,WeatherCatV1.15B25,2013-04-27 09:40:00,
2013-04-27 05:45:00,68.1,65.4,30.15,East,85,1.0,1.0,91,0.00,,,0.00,WeatherCatV1.15B25,2013-04-27 09:45:00,
2013-04-27 05:50:00,68.1,65.4,30.15,East,82,0.0,3.0,91,0.00,,,0.00,WeatherCatV1.15B25,2013-04-27 09:50:00,
2013-04-27 05:55:00,68.1,65.4,30.15,NE,54,0.0,1.0,91,0.00,,,0.00,WeatherCatV1.15B25,2013-04-27 09:55:00,
2013-04-27 06:00:00,68.1,65.4,30.15,ENE,71,0.0,3.0,91,0.00,,,0.00,WeatherCatV1.15B25,2013-04-27 10:00:00,
2013-04-27 06:05:00,68.1,65.7,30.15,ENE,77,1.0,2.0,92,0.00,,,0.00,WeatherCatV1.15B25,2013-04-27 10:05:00,
2013-04-27 06:10:00,68.2,65.8,30.15,ESE,110,1.0,5.0,92,0.00,,,0.00,WeatherCatV1.15B25,2013-04-27 10:10:00,
2013-04-27 06:15:00,68.2,65.8,30.15,ESE,108,0.0,2.0,92,0.00,,,0.00,WeatherCatV1.15B25,2013-04-27 10:15:00,
2013-04-27 06:20:00,68.2,65.8,30.15,ENE,66,1.0,5.0,92,0.00,,,0.00,WeatherCatV1.15B25,2013-04-27 10:20:00,
2013-04-27 06:25:00,68.2,65.8,30.15,ENE,67,0.0,0.0,92,0.00,,,0.00,WeatherCatV1.15B25,2013-04-27 10:25:00,
2013-04-27 06:30:00,68.1,66.0,30.15,ENE,67,1.0,1.0,93,0.00,,,0.00,WeatherCatV1.15B25,2013-04-27 10:30:00,
2013-04-27 06:35:00,68.1,66.0,30.15,ESE,108,0.0,1.0,93,0.00,,,0.00,WeatherCatV1.15B25,2013-04-27 10:35:00,
2013-04-27 06:40:00,68.0,65.9,30.15,East,86,0.0,4.0,93,0.00,,,0.00,WeatherCatV1.15B25,2013-04-27 10:40:00,
2013-04-27 06:45:00,68.0,65.9,30.15,East,95,1.0,2.0,93,0.00,,,0.00,WeatherCatV1.15B25,2013-04-27 10:45:00,
2013-04-27 06:50:00,67.9,65.8,30.16,East,88,0.0,3.0,93,0.00,,,0.00,WeatherCatV1.15B25,2013-04-27 10:50:00,
2013-04-27 06:55:00,67.9,65.8,30.16,East,88,1.0,2.0,93,0.00,,,0.00,WeatherCatV1.15B25,2013-04-27 10:55:00,
2013-04-27 07:00:00,67.9,65.8,30.16,East,88,0.0,0.0,93,0.00,,,0.00,WeatherCatV1.15B25,2013-04-27 11:00:00,
2013-04-27 07:05:00,67.8,65.7,30.16,East,89,2.0,2.0,93,0.00,,,0.00,WeatherCatV1.15B25,2013-04-27 11:05:00,
2013-04-27 07:10:00,67.8,66.0,30.16,East,81,0.0,5.0,94,0.00,,,0.00,WeatherCatV1.15B25,2013-04-27 11:10:00,
2013-04-27 07:15:00,67.9,66.1,30.16,East,98,0.0,2.0,94,0.00,,,0.00,WeatherCatV1.15B25,2013-04-27 11:15:00,
2013-04-27 07:20:00,67.9,66.1,30.16,East,96,0.0,1.0,94,0.00,,,0.00,WeatherCatV1.15B25,2013-04-27 11:20:00,
2013-04-27 07:25:00,68.0,66.2,30.16,ESE,110,4.0,4.0,94,0.00,,,0.00,WeatherCatV1.15B25,2013-04-27 11:25:00,
2013-04-27 07:30:00,68.1,66.3,30.16,East,90,0.0,3.0,94,0.00,,,0.00,WeatherCatV1.15B25,2013-04-27 11:30:00,
2013-04-27 07:35:00,68.2,66.4,30.16,East,95,0.0,0.0,94,0.00,,,0.00,WeatherCatV1.15B25,2013-04-27 11:35:00,
2013-04-27 07:40:00,68.3,66.5,30.16,ESE,109,0.0,5.0,94,0.00,,,0.00,WeatherCatV1.15B25,2013-04-27 11:40:00,
2013-04-27 07:45:00,68.6,66.8,30.16,East,91,1.0,2.0,94,0.00,,,0.00,WeatherCatV1.15B25,2013-04-27 11:45:00,
2013-04-27 07:50:00,68.9,67.1,30.16,ENE,72,0.0,1.0,94,0.00,,,0.00,WeatherCatV1.15B25,2013-04-27 11:50:00,
2013-04-27 07:55:00,69.3,67.2,30.17,East,90,0.0,3.0,93,0.00,,,0.00,WeatherCatV1.15B25,2013-04-27 11:55:00,
2013-04-27 08:00:00,69.6,67.5,30.17,East,96,1.0,1.0,93,0.00,,,0.00,WeatherCatV1.15B25,2013-04-27 12:00:00,
2013-04-27 08:05:00,70.0,67.6,30.17,East,94,0.0,2.0,92,0.00,,,0.00,WeatherCatV1.15B25,2013-04-27 12:05:00,
2013-04-27 08:10:00,70.3,67.5,30.17,East,89,0.0,0.0,91,0.00,,,0.00,WeatherCatV1.15B25,2013-04-27 12:10:00,
2013-04-27 08:15:00,70.7,67.9,30.17,East,96,0.0,0.0,91,0.00,,,0.00,WeatherCatV1.15B25,2013-04-27 12:15:00,
2013-04-27 08:20:00,71.1,68.0,30.18,East,86,1.0,4.0,90,0.00,,,0.00,WeatherCatV1.15B25,2013-04-27 12:20:00,
2013-04-27 08:25:00,71.5,67.8,30.18,East,80,0.0,5.0,88,0.00,,,0.00,WeatherCatV1.15B25,2013-04-27 12:25:00,
2013-04-27 08:30:00,71.8,68.4,30.18,ESE,106,1.0,2.0,89,0.00,,,0.00,WeatherCatV1.15B25,2013-04-27 12:30:00,
2013-04-27 08:35:00,72.3,68.2,30.18,NNE,27,0.0,2.0,87,0.00,,,0.00,WeatherCatV1.15B25,2013-04-27 12:35:00,
2013-04-27 08:40:00,72.8,68.4,30.18,East,90,1.0,4.0,86,0.00,,,0.00,WeatherCatV1.15B25,2013-04-27 12:40:00,
2013-04-27 08:45:00,73.3,68.5,30.18,ENE,76,4.0,5.0,85,0.00,,,0.00,WeatherCatV1.15B25,2013-04-27 12:45:00,
2013-04-27 08:50:00,73.7,68.6,30.18,ESE,115,1.0,5.0,84,0.00,,,0.00,WeatherCatV1.15B25,2013-04-27 12:50:00,
2013-04-27 08:55:00,74.2,68.3,30.18,East,93,4.0,6.0,82,0.00,,,0.00,WeatherCatV1.15B25,2013-04-27 12:55:00,
2013-04-27 09:00:00,74.6,68.7,30.18,SE,126,2.0,5.0,82,0.00,,,0.00,WeatherCatV1.15B25,2013-04-27 13:00:00,
2013-04-27 09:05:00,75.1,68.5,30.18,ESE,108,1.0,6.0,80,0.00,,,0.00,WeatherCatV1.15B25,2013-04-27 13:05:00,
2013-04-27 09:10:00,75.6,68.6,30.18,ENE,69,0.0,6.0,79,0.00,,,0.00,WeatherCatV1.15B25,2013-04-27 13:10:00,
2013-04-27 09:15:00,76.1,68.7,30.18,East,90,4.0,4.0,78,0.00,,,0.00,WeatherCatV1.15B25,2013-04-27 13:15:00,
2013-04-27 09:20:00,76.7,68.9,30.18,East,95,2.0,6.0,77,0.00,,,0.00,WeatherCatV1.15B25,2013-04-27 13:20:00,
2013-04-27 09:25:00,77.2,68.6,30.18,ESE,107,4.0,7.0,75,0.00,,,0.00,WeatherCatV1.15B25,2013-04-27 13:25:00,
2013-04-27 09:30:00,77.3,68.7,30.18,ESE,107,3.0,5.0,75,0.00,,,0.00,WeatherCatV1.15B25,2013-04-27 13:30:00,
2013-04-27 09:35:00,77.2,68.3,30.18,East,84,2.0,7.0,74,0.00,,,0.00,WeatherCatV1.15B25,2013-04-27 13:35:00,
2013-04-27 09:40:00,77.3,68.7,30.18,ESE,117,1.0,7.0,75,0.00,,,0.00,WeatherCatV1.15B25,2013-04-27 13:40:00,
2013-04-27 09:48:00,77.4,68.8,30.18,ESE,117,4.0,5.0,75,0.00,,,0.00,WeatherCatV1.15B25,2013-04-27 13:48:00,
2013-04-27 09:53:00,77.9,68.5,30.18,East,85,4.0,7.0,73,0.00,,,0.00,WeatherCatV1.15B25,2013-04-27 13:53:00,
2013-04-27 09:58:00,78.0,68.2,30.18,ESE,105,2.0,7.0,72,0.00,,,0.00,WeatherCatV1.15B25,2013-04-27 13:58:00,
2013-04-27 10:03:00,78.2,68.0,30.18,ESE,109,3.0,7.0,71,0.00,,,0.00,WeatherCatV1.15B25,2013-04-27 14:03:00,
2013-04-27 10:08:00,78.2,68.0,30.18,SSE,160,1.0,7.0,71,0.00,,,0.00,WeatherCatV1.15B25,2013-04-27 14:08:00,
2013-04-27 10:13:00,78.6,67.6,30.18,ESE,105,6.0,10.0,69,0.00,,,0.00,WeatherCatV1.15B25,2013-04-27 14:13:00,
2013-04-27 10:18:00,78.6,67.6,30.18,East,82,6.0,7.0,69,0.00,,,0.00,WeatherCatV1.15B25,2013-04-27 14:18:00,
2013-04-27 10:23:00,79.0,67.9,30.18,NE,42,5.0,8.0,69,0.00,,,0.00,WeatherCatV1.15B25,2013-04-27 14:23:00,
2013-04-27 10:28:00,78.9,67.4,30.18,East,90,2.0,6.0,68,0.00,,,0.00,WeatherCatV1.15B25,2013-04-27 14:28:00,
2013-04-27 10:33:00,79.0,67.5,30.18,East,93,5.0,6.0,68,0.00,,,0.00,WeatherCatV1.15B25,2013-04-27 14:33:00,
2013-04-27 10:38:00,79.0,67.1,30.19,ESE,122,6.0,6.0,67,0.00,,,0.00,WeatherCatV1.15B25,2013-04-27 14:38:00,
2013-04-27 10:43:00,78.9,67.0,30.19,ESE,123,1.0,8.0,67,0.00,,,0.00,WeatherCatV1.15B25,2013-04-27 14:43:00,
2013-04-27 10:48:00,79.4,67.0,30.19,East,98,1.0,6.0,66,0.00,,,0.00,WeatherCatV1.15B25,2013-04-27 14:48:00,
2013-04-27 10:53:00,79.9,67.1,30.19,NE,53,0.0,7.0,65,0.00,,,0.00,WeatherCatV1.15B25,2013-04-27 14:53:00,
2013-04-27 10:58:00,80.4,67.1,30.18,SE,125,2.0,8.0,64,0.00,,,0.00,WeatherCatV1.15B25,2013-04-27 14:58:00,
2013-04-27 11:03:00,80.9,67.1,30.19,ENE,59,1.0,5.0,63,0.00,,,0.00,WeatherCatV1.15B25,2013-04-27 15:03:00,
2013-04-27 11:08:00,81.1,66.4,30.19,East,95,0.0,7.0,61,0.00,,,0.00,WeatherCatV1.15B25,2013-04-27 15:08:00,
2013-04-27 11:13:00,81.1,66.4,30.19,East,95,6.0,8.0,61,0.00,,,0.00,WeatherCatV1.15B25,2013-04-27 15:13:00,
2013-04-27 11:18:00,81.2,66.4,30.19,East,89,3.0,8.0,61,0.00,,,0.00,WeatherCatV1.15B25,2013-04-27 15:18:00,
2013-04-27 11:23:00,81.2,66.9,30.19,East,84,4.0,8.0,62,0.00,,,0.00,WeatherCatV1.15B25,2013-04-27 15:23:00,
2013-04-27 11:28:00,81.3,66.1,30.19,ESE,113,3.0,7.0,60,0.00,,,0.00,WeatherCatV1.15B25,2013-04-27 15:28:00,
2013-04-27 11:33:00,81.4,66.6,30.19,SE,141,1.0,6.0,61,0.00,,,0.00,WeatherCatV1.15B25,2013-04-27 15:33:00,
2013-04-27 11:38:00,81.6,66.8,30.19,ESE,109,1.0,6.0,61,0.00,,,0.00,WeatherCatV1.15B25,2013-04-27 15:38:00,
2013-04-27 11:43:00,81.9,66.6,30.19,ENE,76,2.0,5.0,60,0.00,,,0.00,WeatherCatV1.15B25,2013-04-27 15:43:00,
2013-04-27 11:48:00,82.0,66.7,30.19,NW,321,0.0,9.0,60,0.00,,,0.00,WeatherCatV1.15B25,2013-04-27 15:48:00,
2013-04-27 11:53:00,82.2,65.9,30.19,SE,132,1.0,2.0,58,0.00,,,0.00,WeatherCatV1.15B25,2013-04-27 15:53:00,
2013-04-27 11:58:00,82.3,66.5,30.19,East,86,3.0,5.0,59,0.00,,,0.00,WeatherCatV1.15B25,2013-04-27 15:58:00,
2013-04-27 12:03:00,82.6,65.8,30.19,North,0,4.0,5.0,57,0.00,,,0.00,WeatherCatV1.15B25,2013-04-27 16:03:00,
2013-04-27 12:08:00,83.0,66.2,30.18,NNE,26,2.0,7.0,57,0.00,,,0.00,WeatherCatV1.15B25,2013-04-27 16:08:00,
2013-04-27 12:13:00,83.5,68.1,30.18,NNW,347,0.0,5.0,60,0.00,,,0.00,WeatherCatV1.15B25,2013-04-27 16:13:00,
2013-04-27 12:18:00,84.0,65.5,30.18,East,99,7.0,9.0,54,0.00,,,0.00,WeatherCatV1.15B25,2013-04-27 16:18:00,
2013-04-27 12:23:00,84.1,65.6,30.18,East,84,1.0,7.0,54,0.00,,,0.00,WeatherCatV1.15B25,2013-04-27 16:23:00,
2013-04-27 12:28:00,83.9,65.4,30.17,North,5,4.0,5.0,54,0.00,,,0.00,WeatherCatV1.15B25,2013-04-27 16:28:00,
2013-04-27 12:33:00,83.9,65.4,30.17,ENE,58,5.0,8.0,54,0.00,,,0.00,WeatherCatV1.15B25,2013-04-27 16:33:00,
2013-04-27 12:38:00,84.3,66.3,30.17,NE,53,2.0,6.0,55,0.00,,,0.00,WeatherCatV1.15B25,2013-04-27 16:38:00,
2013-04-27 12:43:00,84.6,66.6,30.17,NW,317,8.0,9.0,55,0.00,,,0.00,WeatherCatV1.15B25,2013-04-27 16:43:00,
2013-04-27 12:48:00,84.6,65.6,30.17,NE,39,2.0,10.0,53,0.00,,,0.00,WeatherCatV1.15B25,2013-04-27 16:48:00,
2013-04-27 12:53:00,84.7,66.2,30.17,ESE,118,1.0,9.0,54,0.00,,,0.00,WeatherCatV1.15B25,2013-04-27 16:53:00,
2013-04-27 12:58:00,85.0,65.9,30.17,NNE,29,3.0,6.0,53,0.00,,,0.00,WeatherCatV1.15B25,2013-04-27 16:58:00,
2013-04-27 13:03:00,85.1,66.6,30.16,East,94,6.0,8.0,54,0.00,,,0.00,WeatherCatV1.15B25,2013-04-27 17:03:00,
2013-04-27 13:08:00,85.1,65.5,30.16,ESE,105,7.0,10.0,52,0.00,,,0.00,WeatherCatV1.15B25,2013-04-27 17:08:00,
2013-04-27 13:13:00,85.3,65.1,30.16,South,171,0.0,8.0,51,0.00,,,0.00,WeatherCatV1.15B25,2013-04-27 17:13:00,
2013-04-27 13:18:00,84.8,64.6,30.16,East,82,4.0,6.0,51,0.00,,,0.00,WeatherCatV1.15B25,2013-04-27 17:18:00,
2013-04-27 13:23:00,84.7,65.6,30.15,ENE,57,5.0,8.0,53,0.00,,,0.00,WeatherCatV1.15B25,2013-04-27 17:23:00,
2013-04-27 13:28:00,84.5,65.5,30.15,ESE,114,2.0,5.0,53,0.00,,,0.00,WeatherCatV1.15B25,2013-04-27 17:28:00,
2013-04-27 13:33:00,84.1,64.5,30.15,ESE,109,5.0,8.0,52,0.00,,,0.00,WeatherCatV1.15B25,2013-04-27 17:33:00,
2013-04-27 13:38:00,84.3,66.9,30.15,NNE,29,0.0,7.0,56,0.00,,,0.00,WeatherCatV1.15B25,2013-04-27 17:38:00,
2013-04-27 13:43:00,85.1,66.6,30.15,East,81,7.0,8.0,54,0.00,,,0.00,WeatherCatV1.15B25,2013-04-27 17:43:00,
2013-04-27 13:48:00,85.5,65.8,30.15,ENE,72,5.0,7.0,52,0.00,,,0.00,WeatherCatV1.15B25,2013-04-27 17:48:00,
2013-04-27 13:53:00,85.8,64.4,30.15,ESE,117,4.0,7.0,49,0.00,,,0.00,WeatherCatV1.15B25,2013-04-27 17:53:00,
2013-04-27 13:58:00,85.9,65.1,30.15,NNW,346,4.0,7.0,50,0.00,,,0.00,WeatherCatV1.15B25,2013-04-27 17:58:00,
2013-04-27 14:03:00,86.2,65.3,30.14,NE,49,1.0,5.0,50,0.00,,,0.00,WeatherCatV1.15B25,2013-04-27 18:03:00,
2013-04-27 14:08:00,86.7,65.8,30.14,ESE,103,8.0,12.0,50,0.00,,,0.00,WeatherCatV1.15B25,2013-04-27 18:08:00,
2013-04-27 14:13:00,86.6,64.5,30.14,NNE,15,1.0,4.0,48,0.00,,,0.00,WeatherCatV1.15B25,2013-04-27 18:13:00,
2013-04-27 14:18:00,86.5,65.0,30.14,East,86,4.0,4.0,49,0.00,,,0.00,WeatherCatV1.15B25,2013-04-27 18:18:00,
2013-04-27 14:23:00,86.4,64.9,30.13,NNE,25,1.0,8.0,49,0.00,,,0.00,WeatherCatV1.15B25,2013-04-27 18:23:00,
2013-04-27 14:28:00,86.4,64.4,30.13,ENE,64,4.0,5.0,48,0.00,,,0.00,WeatherCatV1.15B25,2013-04-27 18:28:00,
2013-04-27 14:34:00,86.5,64.4,30.13,East,99,0.0,6.0,48,0.00,,,0.00,WeatherCatV1.15B25,2013-04-27 18:34:00,
2013-04-27 14:39:00,86.3,64.3,30.13,ESE,115,4.0,5.0,48,0.00,,,0.00,WeatherCatV1.15B25,2013-04-27 18:39:00,
2013-04-27 14:44:00,85.9,64.5,30.12,North,5,1.0,1.0,49,0.00,,,0.00,WeatherCatV1.15B25,2013-04-27 18:44:00,
2013-04-27 14:49:00,86.0,65.2,30.12,ESE,116,2.0,2.0,50,0.00,,,0.00,WeatherCatV1.15B25,2013-04-27 18:49:00,
2013-04-27 14:54:00,86.0,64.0,30.12,NW,317,3.0,4.0,48,0.00,,,0.00,WeatherCatV1.15B25,2013-04-27 18:54:00,
2013-04-27 14:59:00,85.8,64.4,30.11,ENE,57,5.0,7.0,49,0.00,,,0.00,WeatherCatV1.15B25,2013-04-27 18:59:00,
2013-04-27 15:04:00,85.7,64.3,30.11,ESE,112,0.0,2.0,49,0.00,,,0.00,WeatherCatV1.15B25,2013-04-27 19:04:00,
2013-04-27 15:09:00,85.8,64.4,30.11,SE,126,4.0,6.0,49,0.00,,,0.00,WeatherCatV1.15B25,2013-04-27 19:09:00,
2013-04-27 15:14:00,85.4,64.6,30.11,ESE,107,0.0,4.0,50,0.00,,,0.00,WeatherCatV1.15B25,2013-04-27 19:14:00,
2013-04-27 15:19:00,85.1,63.8,30.11,SE,130,0.0,5.0,49,0.00,,,0.00,WeatherCatV1.15B25,2013-04-27 19:19:00,
2013-04-27 15:24:00,84.8,64.6,30.11,ESE,109,1.0,5.0,51,0.00,,,0.00,WeatherCatV1.15B25,2013-04-27 19:24:00,
2013-04-27 15:29:00,84.5,64.4,30.11,East,97,2.0,5.0,51,0.00,,,0.00,WeatherCatV1.15B25,2013-04-27 19:29:00,
2013-04-27 15:34:00,84.3,64.7,30.10,ESE,106,1.0,6.0,52,0.00,,,0.00,WeatherCatV1.15B25,2013-04-27 19:34:00,
2013-04-27 15:39:00,84.4,64.8,30.10,North,351,4.0,7.0,52,0.00,,,0.00,WeatherCatV1.15B25,2013-04-27 19:39:00,
2013-04-27 15:44:00,84.5,64.9,30.10,ESE,121,2.0,8.0,52,0.00,,,0.00,WeatherCatV1.15B25,2013-04-27 19:44:00,
2013-04-27 15:49:00,84.3,65.8,30.10,SE,124,1.0,5.0,54,0.00,,,0.00,WeatherCatV1.15B25,2013-04-27 19:49:00,
2013-04-27 15:54:00,84.3,65.8,30.10,ESE,113,3.0,6.0,54,0.00,,,0.00,WeatherCatV1.15B25,2013-04-27 19:54:00,
2013-04-27 15:59:00,84.4,65.4,30.10,East,99,4.0,6.0,53,0.00,,,0.00,WeatherCatV1.15B25,2013-04-27 19:59:00,
2013-04-27 16:04:00,84.3,65.3,30.09,East,84,6.0,6.0,53,0.00,,,0.00,WeatherCatV1.15B25,2013-04-27 20:04:00,
2013-04-27 16:09:00,84.5,65.5,30.09,ESE,117,0.0,6.0,53,0.00,,,0.00,WeatherCatV1.15B25,2013-04-27 20:09:00,
2013-04-27 16:14:00,85.0,65.4,30.09,East,97,2.0,8.0,52,0.00,,,0.00,WeatherCatV1.15B25,2013-04-27 20:14:00,
2013-04-27 16:19:00,85.3,66.7,30.09,SE,126,0.0,1.0,54,0.00,,,0.00,WeatherCatV1.15B25,2013-04-27 20:19:00,
2013-04-27 16:24:00,85.6,65.9,30.08,SE,145,0.0,3.0,52,0.00,,,0.00,WeatherCatV1.15B25,2013-04-27 20:24:00,
2013-04-27 16:29:00,86.3,65.4,30.08,SSE,158,0.0,5.0,50,0.00,,,0.00,WeatherCatV1.15B25,2013-04-27 20:29:00,
2013-04-27 16:34:00,86.8,65.3,30.08,South,173,0.0,2.0,49,0.00,,,0.00,WeatherCatV1.15B25,2013-04-27 20:34:00,
2013-04-27 16:39:00,86.5,69.9,30.08,WSW,257,6.0,8.0,58,0.00,,,0.00,WeatherCatV1.15B25,2013-04-27 20:39:00,
2013-04-27 16:44:00,86.1,70.6,30.08,WNW,291,3.0,9.0,60,0.00,,,0.00,WeatherCatV1.15B25,2013-04-27 20:44:00,
2013-04-27 16:49:00,85.4,70.9,30.07,West,273,8.0,11.0,62,0.00,,,0.00,WeatherCatV1.15B25,2013-04-27 20:49:00,
2013-04-27 16:54:00,84.8,70.8,30.07,NW,309,4.0,10.0,63,0.00,,,0.00,WeatherCatV1.15B25,2013-04-27 20:54:00,
2013-04-27 16:59:00,83.8,70.8,30.08,NW,325,2.0,8.0,65,0.00,,,0.00,WeatherCatV1.15B25,2013-04-27 20:59:00,
2013-04-27 17:04:00,83.0,70.4,30.07,West,269,0.0,10.0,66,0.00,,,0.00,WeatherCatV1.15B25,2013-04-27 21:04:00,
2013-04-27 17:09:00,82.5,70.0,30.07,WNW,289,4.0,14.0,66,0.00,,,0.00,WeatherCatV1.15B25,2013-04-27 21:09:00,
2013-04-27 17:14:00,82.1,69.6,30.07,WNW,298,8.0,9.0,66,0.00,,,0.00,WeatherCatV1.15B25,2013-04-27 21:14:00,
2013-04-27 17:19:00,81.9,70.3,30.07,NW,322,5.0,11.0,68,0.00,,,0.00,WeatherCatV1.15B25,2013-04-27 21:19:00,
2013-04-27 17:24:00,81.8,70.2,30.07,West,278,2.0,7.0,68,0.00,,,0.00,WeatherCatV1.15B25,2013-04-27 21:24:00,
2013-04-27 17:29:00,81.6,70.0,30.07,NNW,327,5.0,10.0,68,0.00,,,0.00,WeatherCatV1.15B25,2013-04-27 21:29:00,
2013-04-27 17:34:00,81.4,70.2,30.07,NNW,332,4.0,6.0,69,0.00,,,0.00,WeatherCatV1.15B25,2013-04-27 21:34:00,
2013-04-27 17:39:00,81.3,70.1,30.07,NNW,333,4.0,7.0,69,0.00,,,0.00,WeatherCatV1.15B25,2013-04-27 21:39:00,
2013-04-27 17:44:00,81.3,70.6,30.07,WNW,294,4.0,6.0,70,0.00,,,0.00,WeatherCatV1.15B25,2013-04-27 21:44:00,
2013-04-27 17:49:00,81.5,71.2,30.07,WNW,295,5.0,10.0,71,0.00,,,0.00,WeatherCatV1.15B25,2013-04-27 21:49:00,
2013-04-27 17:54:00,81.7,70.9,30.07,SW,223,6.0,9.0,70,0.00,,,0.00,WeatherCatV1.15B25,2013-04-27 21:54:00,
2013-04-27 17:59:00,82.0,71.2,30.06,WNW,299,4.0,8.0,70,0.00,,,0.00,WeatherCatV1.15B25,2013-04-27 21:59:00,
2013-04-27 18:04:00,82.3,71.1,30.06,WNW,298,6.0,12.0,69,0.00,,,0.00,WeatherCatV1.15B25,2013-04-27 22:04:00,
2013-04-27 18:09:00,82.3,71.1,30.06,West,281,7.0,12.0,69,0.00,,,0.00,WeatherCatV1.15B25,2013-04-27 22:09:00,
2013-04-27 18:14:00,82.1,70.9,30.07,WNW,292,5.0,10.0,69,0.00,,,0.00,WeatherCatV1.15B25,2013-04-27 22:14:00,
2013-04-27 18:19:00,81.8,70.2,30.06,NW,304,6.0,8.0,68,0.00,,,0.00,WeatherCatV1.15B25,2013-04-27 22:19:00,
2013-04-27 18:24:00,81.5,69.9,30.06,NW,311,11.0,11.0,68,0.00,,,0.00,WeatherCatV1.15B25,2013-04-27 22:24:00,
2013-04-27 18:29:00,81.3,69.7,30.06,WNW,296,2.0,8.0,68,0.00,,,0.00,WeatherCatV1.15B25,2013-04-27 22:29:00,
2013-04-27 18:34:00,81.2,69.6,30.06,WNW,290,2.0,8.0,68,0.00,,,0.00,WeatherCatV1.15B25,2013-04-27 22:34:00,
2013-04-27 18:39:00,81.2,70.0,30.07,NW,306,7.0,7.0,69,0.00,,,0.00,WeatherCatV1.15B25,2013-04-27 22:39:00,
2013-04-27 18:44:00,81.1,69.9,30.07,North,0,4.0,5.0,69,0.00,,,0.00,WeatherCatV1.15B25,2013-04-27 22:44:00,
2013-04-27 18:49:00,80.9,69.8,30.07,NW,317,6.0,7.0,69,0.00,,,0.00,WeatherCatV1.15B25,2013-04-27 22:49:00,
2013-04-27 18:54:00,80.9,69.8,30.07,NW,304,1.0,8.0,69,0.00,,,0.00,WeatherCatV1.15B25,2013-04-27 22:54:00,
2013-04-27 18:59:00,80.9,69.8,30.07,WNW,301,5.0,9.0,69,0.00,,,0.00,WeatherCatV1.15B25,2013-04-27 22:59:00,
2013-04-27 19:04:00,81.0,69.8,30.07,WNW,294,3.0,7.0,69,0.00,,,0.00,WeatherCatV1.15B25,2013-04-27 23:04:00,
2013-04-27 19:09:00,81.0,69.8,30.07,WNW,295,2.0,8.0,69,0.00,,,0.00,WeatherCatV1.15B25,2013-04-27 23:09:00,
2013-04-27 19:14:00,81.0,69.8,30.07,NW,321,4.0,5.0,69,0.00,,,0.00,WeatherCatV1.15B25,2013-04-27 23:14:00,
2013-04-27 19:19:00,80.8,69.7,30.07,NNW,327,2.0,6.0,69,0.00,,,0.00,WeatherCatV1.15B25,2013-04-27 23:19:00,
2013-04-27 19:24:00,80.8,70.1,30.07,NW,323,5.0,7.0,70,0.00,,,0.00,WeatherCatV1.15B25,2013-04-27 23:24:00,
2013-04-27 19:29:00,80.7,70.0,30.07,NW,305,1.0,5.0,70,0.00,,,0.00,WeatherCatV1.15B25,2013-04-27 23:29:00,
2013-04-27 19:34:00,80.6,69.9,30.07,NNW,332,1.0,2.0,70,0.00,,,0.00,WeatherCatV1.15B25,2013-04-27 23:34:00,
2013-04-27 19:39:00,80.5,70.2,30.07,North,355,1.0,2.0,71,0.00,,,0.00,WeatherCatV1.15B25,2013-04-27 23:39:00,
2013-04-27 19:44:00,80.2,69.1,30.07,North,355,0.0,0.0,69,0.00,,,0.00,WeatherCatV1.15B25,2013-04-27 23:44:00,
2013-04-27 19:49:00,80.0,70.1,30.07,North,355,0.0,0.0,72,0.00,,,0.00,WeatherCatV1.15B25,2013-04-27 23:49:00,
2013-04-27 19:54:00,79.7,70.3,30.07,North,355,0.0,0.0,73,0.00,,,0.00,WeatherCatV1.15B25,2013-04-27 23:54:00,
2013-04-27 19:59:00,79.5,70.1,30.07,North,355,0.0,0.0,73,0.00,,,0.00,WeatherCatV1.15B25,2013-04-27 23:59:00,
2013-04-27 20:04:00,79.2,70.6,30.07,North,355,0.0,0.0,75,0.00,,,0.00,WeatherCatV1.15B25,2013-04-28 00:04:00,
2013-04-27 20:09:00,79.0,70.4,30.08,North,355,0.0,0.0,75,0.00,,,0.00,WeatherCatV1.15B25,2013-04-28 00:09:00,
2013-04-27 20:14:00,78.8,71.0,30.08,North,355,0.0,0.0,77,0.00,,,0.00,WeatherCatV1.15B25,2013-04-28 00:14:00,
2013-04-27 20:19:00,78.7,70.1,30.08,North,355,0.0,0.0,75,0.00,,,0.00,WeatherCatV1.15B25,2013-04-28 00:19:00,
2013-04-27 20:24:00,78.5,69.9,30.08,North,355,0.0,0.0,75,0.00,,,0.00,WeatherCatV1.15B25,2013-04-28 00:24:00,
2013-04-27 20:29:00,78.4,69.4,30.08,North,5,0.0,2.0,74,0.00,,,0.00,WeatherCatV1.15B25,2013-04-28 00:29:00,
2013-04-27 20:34:00,78.3,69.3,30.08,North,5,0.0,1.0,74,0.00,,,0.00,WeatherCatV1.15B25,2013-04-28 00:34:00,
2013-04-27 20:39:00,78.2,68.8,30.08,NNE,13,0.0,1.0,73,0.00,,,0.00,WeatherCatV1.15B25,2013-04-28 00:39:00,
2013-04-27 20:44:00,78.2,67.6,30.08,ENE,59,1.0,5.0,70,0.00,,,0.00,WeatherCatV1.15B25,2013-04-28 00:44:00,
2013-04-27 20:49:00,78.2,66.8,30.08,ENE,75,1.0,4.0,68,0.00,,,0.00,WeatherCatV1.15B25,2013-04-28 00:49:00,
2013-04-27 20:54:00,78.4,66.9,30.08,ENE,71,1.0,5.0,68,0.00,,,0.00,WeatherCatV1.15B25,2013-04-28 00:54:00,
2013-04-27 20:59:00,78.6,66.7,30.08,ENE,71,0.0,6.0,67,0.00,,,0.00,WeatherCatV1.15B25,2013-04-28 00:59:00,
2013-04-27 21:04:00,78.7,66.8,30.09,East,94,8.0,8.0,67,0.00,,,0.00,WeatherCatV1.15B25,2013-04-28 01:04:00,
2013-04-27 21:09:00,78.8,66.5,30.09,East,86,1.0,6.0,66,0.00,,,0.00,WeatherCatV1.15B25,2013-04-28 01:09:00,
2013-04-27 21:14:00,78.8,66.5,30.08,East,92,1.0,10.0,66,0.00,,,0.00,WeatherCatV1.15B25,2013-04-28 01:14:00,
2013-04-27 21:19:00,78.8,66.5,30.09,ESE,107,4.0,7.0,66,0.00,,,0.00,WeatherCatV1.15B25,2013-04-28 01:19:00,
2013-04-27 21:24:00,78.7,66.4,30.09,ENE,73,5.0,5.0,66,0.00,,,0.00,WeatherCatV1.15B25,2013-04-28 01:24:00,
2013-04-27 21:29:00,78.6,66.3,30.09,East,92,2.0,9.0,66,0.00,,,0.00,WeatherCatV1.15B25,2013-04-28 01:29:00,
2013-04-27 21:34:00,78.5,65.7,30.09,East,82,6.0,8.0,65,0.00,,,0.00,WeatherCatV1.15B25,2013-04-28 01:34:00,
2013-04-27 21:39:00,78.3,65.5,30.09,East,84,0.0,8.0,65,0.00,,,0.00,WeatherCatV1.15B25,2013-04-28 01:39:00,
2013-04-27 21:44:00,78.1,65.8,30.09,East,80,5.0,6.0,66,0.00,,,0.00,WeatherCatV1.15B25,2013-04-28 01:44:00,
2013-04-27 21:49:00,78.0,65.7,30.09,East,90,0.0,8.0,66,0.00,,,0.00,WeatherCatV1.15B25,2013-04-28 01:49:00,
2013-04-27 21:54:00,77.8,65.5,30.10,ENE,57,6.0,9.0,66,0.00,,,0.00,WeatherCatV1.15B25,2013-04-28 01:54:00,
2013-04-27 21:59:00,77.6,65.8,30.10,NE,40,0.0,6.0,67,0.00,,,0.00,WeatherCatV1.15B25,2013-04-28 01:59:00,
2013-04-27 22:04:00,77.5,66.1,30.10,East,84,5.0,9.0,68,0.00,,,0.00,WeatherCatV1.15B25,2013-04-28 02:04:00,
2013-04-27 22:09:00,77.3,65.9,30.10,East,92,1.0,6.0,68,0.00,,,0.00,WeatherCatV1.15B25,2013-04-28 02:09:00,
2013-04-27 22:14:00,77.1,66.1,30.10,East,85,5.0,8.0,69,0.00,,,0.00,WeatherCatV1.15B25,2013-04-28 02:14:00,
2013-04-27 22:19:00,76.8,65.8,30.11,ENE,62,7.0,7.0,69,0.00,,,0.00,WeatherCatV1.15B25,2013-04-28 02:19:00,
2013-04-27 22:24:00,76.6,66.1,30.11,East,90,4.0,4.0,70,0.00,,,0.00,WeatherCatV1.15B25,2013-04-28 02:24:00,
2013-04-27 22:29:00,76.3,66.2,30.11,ESE,120,4.0,6.0,71,0.00,,,0.00,WeatherCatV1.15B25,2013-04-28 02:29:00,
2013-04-27 22:34:00,76.0,65.9,30.11,ENE,78,4.0,8.0,71,0.00,,,0.00,WeatherCatV1.15B25,2013-04-28 02:34:00,
2013-04-27 22:39:00,75.8,65.7,30.11,East,101,5.0,5.0,71,0.00,,,0.00,WeatherCatV1.15B25,2013-04-28 02:39:00,
2013-04-27 22:44:00,75.6,65.9,30.11,ENE,67,1.0,5.0,72,0.00,,,0.00,WeatherCatV1.15B25,2013-04-28 02:44:00,
2013-04-27 22:49:00,75.3,65.6,30.11,ESE,107,1.0,7.0,72,0.00,,,0.00,WeatherCatV1.15B25,2013-04-28 02:49:00,
2013-04-27 22:54:00,75.1,65.8,30.11,East,89,3.0,6.0,73,0.00,,,0.00,WeatherCatV1.15B25,2013-04-28 02:54:00,
2013-04-27 22:59:00,74.9,65.6,30.11,ENE,75,4.0,6.0,73,0.00,,,0.00,WeatherCatV1.15B25,2013-04-28 02:59:00,
2013-04-27 23:04:00,74.8,65.5,30.11,NNE,14,0.0,3.0,73,0.00,,,0.00,WeatherCatV1.15B25,2013-04-28 03:04:00,
2013-04-27 23:09:00,74.6,65.7,30.11,East,80,2.0,5.0,74,0.00,,,0.00,WeatherCatV1.15B25,2013-04-28 03:09:00,
2013-04-27 23:14:00,74.4,65.6,30.11,ENE,70,0.0,2.0,74,0.00,,,0.00,WeatherCatV1.15B25,2013-04-28 03:14:00,
2013-04-27 23:19:00,74.2,65.4,30.11,East,94,0.0,3.0,74,0.00,,,0.00,WeatherCatV1.15B25,2013-04-28 03:19:00,
2013-04-27 23:24:00,74.1,65.3,30.11,ESE,102,0.0,5.0,74,0.00,,,0.00,WeatherCatV1.15B25,2013-04-28 03:24:00,
2013-04-27 23:29:00,73.9,65.1,30.11,East,92,1.0,5.0,74,0.00,,,0.00,WeatherCatV1.15B25,2013-04-28 03:29:00,
2013-04-27 23:34:00,73.8,65.0,30.11,ESE,113,5.0,6.0,74,0.00,,,0.00,WeatherCatV1.15B25,2013-04-28 03:34:00,
2013-04-27 23:39:00,73.6,64.8,30.11,SE,128,2.0,4.0,74,0.00,,,0.00,WeatherCatV1.15B25,2013-04-28 03:39:00,
2013-04-27 23:44:00,73.5,64.7,30.11,East,90,7.0,7.0,74,0.00,,,0.00,WeatherCatV1.15B25,2013-04-28 03:44:00,
2013-04-27 23:49:00,73.4,64.2,30.11,ESE,103,1.0,7.0,73,0.00,,,0.00,WeatherCatV1.15B25,2013-04-28 03:49:00,
2013-04-27 23:54:00,73.3,64.1,30.11,East,101,6.0,11.0,73,0.00,,,0.00,WeatherCatV1.15B25,2013-04-28 03:54:00,
2013-04-27 23:59:00,73.3,64.1,30.11,ENE,76,7.0,8.0,73,0.00,,,0.00,WeatherCatV1.15B25,2013-04-28 03:59:00,